Location: Gudip?du
(17.0263°N, 80.8301°E)
Time: 13:12:00
(UTC+00:00)

Cosmos 1140 Rocket - Pass Details

Date: 03 August 2024
Orbit: 741 x 764 km, 74.1° (Epoch: 11 September)

Event Time Altitude Azimuth Distance (km) Brightness Sun altitude
Rises 14:54:51 0° 355° (N) 3,195 7.2 -24.2°
Reaches altitude 10° 14:57:17 10° 1° (N) 2,273 6.3 -24.7°
Enters shadow 15:01:13 42° 40° (NE) 1,068 4.1 -25.6°
